DW8241 Weather Reports


Display with metric or nautical units.
time (UTC)temp
F
wind
direction
speed
MPH
gust
MPH
rain 1hr
in
rain 24hr
in
rain mn
in
humidity
%
barometer
mb
20260904041519 64 345 2.0 6.0 0.00 0.99 0.99 98 1010.0
20260904040019 63 319 1.0 4.0 0.00 0.99 0.99 98 1009.9
20260904034519 63 331 0.0 3.0 0.00 0.99 0.99 97 1009.7
20260904033027 63 17 1.0 3.0 0.00 0.99 0.99 97 1009.6
20260904031518 63 18 0.0 3.0 0.00 0.99 0.99 97 1009.7
20260904030016 64 26 0.0 2.0 0.00 0.99 0.99 96 1009.7
20260904024516 64 4 0.0 3.0 0.00 0.99 0.99 95 1009.9
20260904023016 65 34 0.0 4.0 0.00 0.99 0.99 94 1009.3
20260904021518 66 54 0.0 5.0 0.00 0.99 0.99 93 1009.0
20260904020015 67 27 4.0 9.0 0.00 0.99 0.99 91 1009.3
20260904014516 67 4 5.0 11.0 0.00 0.99 0.99 91 1009.1
20260904013014 66 327 3.0 6.0 0.00 0.99 0.99 93 1008.7
20260904011513 67 205 0.0 2.0 0.00 0.99 0.99 92 1007.6
20260904010015 67 105 2.0 4.0 0.00 0.99 0.99 90 1007.6
20260904004512 68 77 1.0 6.0 0.00 0.99 0.99 89 1007.3
20260904003012 70 110 0.0 7.0 0.00 0.99 0.99 86 1006.8
20260904001510 70 134 2.0 11.0 0.00 0.99 0.99 85 1007.7
20260904000010 68 315 8.0 15.0 0.00 0.99 0.99 89 1008.4
20260903234509 68 108 2.0 4.0 0.00 0.99 0.99 89 1006.0
20260903233024 68 153 2.0 7.0 0.00 0.99 0.99 88 1006.0
20260903231508 69 156 3.0 6.0 0.00 0.99 0.99 88 1005.4
20260903230005 69 79 2.0 7.0 0.00 0.99 0.99 87 1005.7
20260903224504 69 113 4.0 9.0 0.00 0.99 0.99 87 1005.8
20260903223003 69 119 4.0 11.0 0.00 0.99 0.99 87 1005.9
20260903221502 70 111 4.0 10.0 0.00 0.99 0.99 87 1005.9
20260903220101 70 128 4.0 8.0 0.00 0.99 0.99 91 1006.5
20260903220001 70 112 4.0 8.0 0.00 0.99 0.99 91 1006.4
20260903214606 68 76 2.0 6.0 0.00 0.99 0.99 97 1007.0
20260903213059 67 76 2.0 7.0 0.00 0.99 0.99 100 1006.7
20260903211604 65 96 3.0 9.0 0.00 0.99 0.99 100 1006.5
20260903210139 64 80 3.0 6.0 0.00 0.99 0.99 100 1006.3
20260903204605 64 103 3.0 10.0 0.00 0.99 0.99 100 1005.9
20260903203057 64 87 3.0 8.0 0.01 0.99 0.99 100 1006.5
20260903201557 64 82 1.0 9.0 0.07 0.99 0.99 100 1006.1
20260903200114 64 72 4.0 9.0 0.22 0.99 0.99 100 1006.6
20260903194556 64 86 6.0 14.0 0.45 0.99 0.99 100 1006.4
20260903193057 64 77 4.0 12.0 0.63 0.98 0.98 100 1006.3
20260903191602 64 20 4.0 14.0 0.90 0.92 0.92 100 1009.1
20260903190054 64 358 7.0 16.0 0.73 0.75 0.75 100 1009.1
20260903184558 63 323 8.0 18.0 0.51 0.53 0.53 99 1009.3
20260903183056 62 336 18.0 29.0 0.32 0.34 0.34 97 1007.4
20260903181549 70 302 6.0 11.0 0.00 0.02 0.02 89 1008.1
20260903180047 71 4 5.0 9.0 0.01 0.02 0.02 87 1007.0
20260903174547 72 70 1.0 8.0 0.02 0.02 0.02 86 1006.8
20260903173046 74 58 5.0 12.0 0.02 0.02 0.02 82 1005.8
20260903171600 75 78 1.0 6.0 0.02 0.02 0.02 81 1006.8
20260903170048 77 73 1.0 5.0 0.01 0.01 0.01 75 1007.1
20260903164540 78 88 2.0 5.0 0.00 0.00 0.00 69 1007.2
20260903163042 78 70 2.0 4.0 0.00 0.00 0.00 69 1007.6
20260903161538 78 75 2.0 4.0 0.00 0.00 0.00 70 1007.7
20260903160038 79 105 1.0 5.0 0.00 0.00 0.00 68 1008.1
20260903154536 79 143 2.0 9.0 0.00 0.00 0.00 69 1007.7
20260903153030 77 27 3.0 8.0 0.00 0.00 0.00 71 1007.0
20260903151527 76 116 4.0 8.0 0.00 0.00 0.00 71 1007.2
20260903150038 74 122 2.0 7.0 0.00 0.00 0.00 73 1007.4
20260903144520 73 109 2.0 6.0 0.00 0.00 0.00 76 1007.8
20260903143024 71 133 2.0 8.0 0.00 0.00 0.00 78 1007.7
20260903141515 70 143 1.0 5.0 0.00 0.00 0.00 80 1008.1
20260903140009 70 139 2.0 7.0 0.00 0.00 0.00 80 1008.3
20260903134507 69 125 1.0 6.0 0.00 0.00 0.00 81 1008.6
20260903133003 67 83 0.0 6.0 0.00 0.00 0.00 83 1008.7
20260903131609 66 153 1.0 3.0 0.00 0.00 0.00 85 1008.6
20260903130056 64 110 1.0 3.0 0.00 0.00 0.00 87 1008.8
20260903124610 63 111 0.0 2.0 0.00 0.00 0.00 88 1009.2
20260903123054 63 120 0.0 4.0 0.00 0.00 0.00 88 1009.1
20260903121553 62 107 1.0 5.0 0.00 0.00 0.00 89 1008.9
20260903120101 62 106 0.0 3.0 0.00 0.00 0.00 90 1008.9
20260903114552 61 127 0.0 3.0 0.00 0.00 0.00 90 1009.0
20260903113055 61 122 0.0 2.0 0.00 0.00 0.00 91 1008.9
20260903111548 61 113 0.0 3.0 0.00 0.00 0.00 92 1009.1
20260903110048 60 115 0.0 1.0 0.00 0.00 0.00 92 1009.7
20260903104548 60 114 0.0 1.0 0.00 0.00 0.00 93 1009.8
20260903103043 60 114 0.0 0.0 0.00 0.00 0.00 92 1009.8
20260903101553 60 113 0.0 1.0 0.00 0.00 0.00 92 1009.7
20260903100042 60 113 0.0 1.0 0.00 0.00 0.00 92 1009.7
20260903094559 61 113 0.0 1.0 0.00 0.00 0.00 92 1009.8
20260903093044 61 113 0.0 1.0 0.00 0.00 0.00 92 1009.9
20260903091542 61 113 0.0 1.0 0.00 0.00 0.00 91 1010.0
20260903090038 61 128 0.0 1.0 0.00 0.00 0.00 91 1010.0
20260903084537 61 121 0.0 1.0 0.00 0.00 0.00 91 1010.0
20260903083038 61 100 0.0 2.0 0.00 0.00 0.00 91 1010.2
20260903081534 61 124 0.0 1.0 0.00 0.00 0.00 91 1010.2
20260903080047 61 124 0.0 1.0 0.00 0.00 0.00 90 1010.3
20260903074529 61 125 0.0 1.0 0.00 0.00 0.00 89 1010.6
20260903073031 61 133 0.0 1.0 0.00 0.00 0.00 88 1010.9
20260903071526 62 96 0.0 2.0 0.00 0.00 0.00 87 1010.9
20260903070023 62 122 0.0 2.0 0.00 0.00 0.00 86 1010.9
20260903064522 63 110 0.0 1.0 0.00 0.00 0.00 86 1010.9
20260903063022 63 122 0.0 2.0 0.00 0.00 0.00 86 1011.0
20260903061520 63 122 0.0 2.0 0.00 0.00 0.00 85 1010.9
20260903060020 63 113 0.0 1.0 0.00 0.00 0.00 84 1011.1
20260903054519 63 105 0.0 1.0 0.00 0.00 0.00 83 1011.0
20260903053016 63 112 0.0 1.0 0.00 0.00 0.00 81 1011.1
20260903051512 64 112 0.0 1.0 0.00 0.00 0.00 80 1011.3
20260903050021 64 127 0.0 2.0 0.00 0.00 0.00 79 1011.2
20260903044518 65 114 0.0 1.0 0.00 0.00 0.00 79 1011.2
20260903043012 65 84 0.0 1.0 0.00 0.00 0.00 79 1011.2